IRIDIUM 19 [-]

Last updated on Sun Apr 08 2018 00:19:32 GMT+0000 (Coordinated Universal Time)

1 24965U 97056A 18097.22249121 .15690194 -15286-5 28846-3 0 9995 2 24965 86.3570 184.0870 0015366 83.3282 277.2194 16.46396628 76277

Satellite not in orbit